Location: Damada
(14.7329°N, 3.1761°W)
Time: 14:06:32
(UTC+00:00)

Cosmos 1943 Rocket - Pass Details

Date: 18 February 2020
Orbit: 813 x 842 km, 71.0° (Epoch: 08 April)

Event Time Altitude Azimuth Distance (km) Brightness Sun altitude
Rises 18:51:15 0° 202° (SSW) 3,378 5.8 -8.8°
Reaches altitude 10° 18:53:42 10° 205° (SSW) 2,442 5.1 -9.4°
Maximum altitude 18:59:15 65° 287° (WNW) 910 2.6 -10.7°
Drops below altitude 10° 19:04:46 10° 9° (N) 2,425 4.4 -12.0°
Sets 19:07:13 0° 12° (NNE) 3,354 5.1 -12.6°
